User: anonymous   Login
Location: *
(50.5492°N, 7.7469°E)
Time: 13:19:02
(UTC+00:00)
Language:

ATLAS 5 CENTAUR R/B - Orbit

View from above orbital plane
View from above orbital plane
View from above satellite
View from above satellite

Ground track
Ground track

The orbit data is extracted from the following two-line orbital elements,

1 31702U 07027B   19343.25395031 0.00000000  00000-0  00000-0 0    00
2 31702  63.3311 103.0396 0370054  13.8355 346.1645 14.18739647    07
Epoch (UTC): 09 December 2019 06:05:41
Eccentricity: 0.0370054
inclination: 63.3311°
perigee height: 563 km
apogee height: 1096 km
right ascension of ascending node: 103.0396°
argument of perigee: 13.8355°
revolutions per day: 14.18739647
mean anomaly at epoch: 346.1645°
orbit number at epoch: 0

The dashed part of the orbit path shows where the satellite is in the earth's shadow,  

DLR